This is the latest recevied weather packets stored in our database for station/object KY4GW. If no packets are shown the sender has not sent any weather packets the latest 10 day(s).
| Time | Temp. | Humidity | Pressure | Rain* | Wind** | Luminosity | Snow |
|---|---|---|---|---|---|---|---|
| 1777691823 | 5° C | 90% | 1020.1 hPa | 0 mm | - | 0 W/m² | - |
| 1777691520 | 5° C | 90% | 1020.1 hPa | 0 mm | - | 0 W/m² | - |
| 1777691219 | 5° C | 89% | 1020.1 hPa | 0 mm | - | 0 W/m² | - |
| 1777690916 | 5° C | 89% | 1020.1 hPa | 0 mm | - | 0 W/m² | - |
| 1777690625 | 5.56° C | 89% | 1020.1 hPa | 0 mm | - | 0 W/m² | - |
| 1777690311 | 5.56° C | 89% | 1020.1 hPa | 0 mm | - | 0 W/m² | - |
| 1777690009 | 5.56° C | 86% | 1020.1 hPa | 0 mm | - | 0 W/m² | - |
| 1777689707 | 5.56° C | 86% | 1020.4 hPa | 0 mm | - | 0 W/m² | - |
| 1777689404 | 5.56° C | 85% | 1020.4 hPa | 0 mm | - | 0 W/m² | - |
| 1777689101 | 6.11° C | 85% | 1020.4 hPa | 0 mm | - | 0 W/m² | - |
| 1777688798 | 6.11° C | 84% | 1020.4 hPa | 0 mm | - | 0 W/m² | - |
| 1777688495 | 6.11° C | 83% | 1020.4 hPa | 0 mm | - | 0 W/m² | - |
| 1777688193 | 6.11° C | 81% | 1020.4 hPa | 0 mm | - | 0 W/m² | - |
| 1777687890 | 6.67° C | 80% | 1020.1 hPa | 0 mm | - | 0 W/m² | - |
| 1777687587 | 6.67° C | 81% | 1020.1 hPa | 0 mm | - | 0 W/m² | - |
| 1777687284 | 7.22° C | 80% | 1020.1 hPa | 0 mm | - | 0 W/m² | - |
| 1777686982 | 7.22° C | 80% | 1019.6 hPa | 0 mm | - | 0 W/m² | - |
| 1777686678 | 7.22° C | 76% | 1019.6 hPa | 0 mm | - | 0 W/m² | - |
| 1777686375 | 7.78° C | 74% | 1019.6 hPa | 0 mm | - | 0 W/m² | - |
| 1777686072 | 7.78° C | 74% | 1019.3 hPa | 0 mm | - | 0 W/m² | - |
| 1777685768 | 7.78° C | 74% | 1019.3 hPa | 0 mm | - | 0 W/m² | - |
| 1777685464 | 8.33° C | 72% | 1019 hPa | 0 mm | - | 0 W/m² | - |
| 1777685162 | 8.33° C | 71% | 1019 hPa | 0 mm | - | 0 W/m² | - |
| 1777684859 | 8.89° C | 67% | 1019 hPa | 0 mm | - | 0 W/m² | - |
| 1777684555 | 9.44° C | 66% | 1018.6 hPa | 0 mm | - | 0 W/m² | - |
* Rain latest hour (hover to see other rain measurements)
** Current wind speed in m/s (hover to see current wind gust speed)